Torna al catalogo

FENGYUN 1C DEB

LostSSO
NORAD 30964·DEBRIS·🇨🇳 China

Lanciato May 10, 1999 da Taiyuan Satellite Launch Center

Loading…

Prossimi Passaggi (prossime 24 ore)

TLE

ObsoletoSource: Space-Track

Epoca: Jun 24, 2026, 03:00 UTC

1 30964U 99025BBE 26175.12561521  .00002033  00000-0  12615-2 0  9996
2 30964  98.6811 137.8112 0141256  56.4289   3.5576 14.01333164981036

Traccia FENGYUN 1C DEB in tempo reale con AllMySat

Download on the App Store